Tracking 25734 objects as of 28-May-2022
HD Live streaming from Space Station
objects crossing your sky now

CRRES DEB (CANISTER)

Track CRRES DEB (CANISTER) now!
10-day predictions


NORAD ID: 21948
Int'l Code: 1990-065S
Perigee: 268.2 km
Apogee: 23,126.1 km
Inclination: 17.8 °
Period: 402.8 minutes
Semi major axis: 18068 km
RCS: 0.1262 m2 (medium)
Launch date: July 25, 1990
Source: United States (US)
Launch site: AIR FORCE EASTERN TEST RANGE (AFETR)

Note: This is SATELLITE DEBRIS
aabbcc
Your satellite tracking list
Your tracking list is empty




NASA's NSSDC Master Catalog

Two Line Element Set (TLE):
1 21948U 90065S   22145.69568245  .00007990  00000-0  13898-2 0  9999
2 21948  17.7882  32.5941 6325446 358.1429   0.3952  3.57464209309488
Source of the keplerian elements: AFSPC